Location: Unspecified
(0.0000°N, 0.0000°E)
Time: 16:30:15
(UTC+00:00)

Explorer 35 - Visible Passes

Search period start: 15 May 2026 00:00
Search period end: 25 May 2026 00:00
Orbit: 484 x 675 km, 32.5° (Epoch: 3 March)

Date Brightness Start Highest point End Pass type
(mag) Time Alt. Az. Time Alt. Az. Time Alt. Az.
20 May ? 19:46:36 10° SSW 19:46:43 11° SSW 19:46:43 11° SSW visible
21 May ? 19:49:29 10° SW 19:50:58 20° SW 19:50:58 20° SW visible
22 May ? 19:52:43 10° WSW 19:55:27 36° WSW 19:55:27 36° WSW visible
23 May ? 19:56:19 10° WSW 20:00:05 36° NW 20:00:05 36° NW visible
24 May ? 18:17:22 10° SW 18:21:52 52° SE 18:26:05 10° ENE visible
24 May ? 20:00:22 10° W 20:03:40 21° NW 20:04:50 19° NNW visible
